Weather History for Wrangell, AK

Change the Weather History Date:

Monday, October 15, 2012

  Actual Average Record
Temperature  
Mean Temperature 48 °F -  
Max Temperature 51 °F 49 °F 56 °F (1963)
Min Temperature 44 °F 39 °F 26 °F (1992)
Degree Days  
Heating Degree Days 18    
Moisture  
Dew Point 41 °F    
Average Humidity 81    
Maximum Humidity 93    
Minimum Humidity 66    
Precipitation  
Precipitation 0.00 in - - ()
Sea Level Pressure  
Sea Level Pressure 29.29 in    
Wind  
Wind Speed 9 mph (SE)    
Max Wind Speed 16 mph    
Max Gust Speed 23 mph    
Visibility 10 miles    
Events      
Averages and records for this station are not official NWS values.
T = Trace of Precipitation, MM = Missing Value Source: NWS Daily Summary

Daily Weather History Graph

Daily Weather History Graph

Search for Another Location

Airport:

Trip Planner

Search our weather history database for the weather conditions in past years. The results will help you decide how hot, cold, wet, or windy it might be!

Date:

Astronomy

Oct. 15, 2012 Rise Set
Actual Time 7:23 AM AKDT 5:46 PM AKDT
Civil Twilight 6:44 AM AKDT 6:24 PM AKDT
Nautical Twilight 6:01 AM AKDT 7:07 PM AKDT
Astronomical Twilight 5:17 AM AKDT 7:51 PM AKDT
Moon 7:55 AM AKDT (10/15) 5:32 PM AKDT (10/15)
Length of Visible Light 11h 39m
Length of Day
10h 23m
New Moon, 0% of the Moon is Illuminated
Oct 15
New Moon
Oct 21
First Quarter
Oct 29
Full
Nov 6
Last Quarter
Nov 13
New

Hourly Weather History & Observations

Time (AKDT) Temp. Windchill Dew Point Humidity Pressure Visibility Wind Dir Wind Speed Gust Speed Precip Events Conditions
12:16 AM 51.8 °F - 42.8 °F 71% 29.45 in 10.0 mi WSW 16.1 mph 20.7 mph N/A   Overcast
12:36 AM 51.8 °F - 42.8 °F 71% 29.46 in 10.0 mi WSW 12.7 mph 21.9 mph N/A   Overcast
12:56 AM 50.0 °F - 41.0 °F 71% 29.49 in 9.0 mi West 13.8 mph 23.0 mph N/A   Overcast
1:16 AM 48.2 °F - 39.2 °F 71% 29.50 in 9.0 mi SW 12.7 mph 21.9 mph N/A   Overcast
1:36 AM 50.0 °F - 39.2 °F 66% 29.52 in 10.0 mi South 4.6 mph 16.1 mph N/A   Overcast
1:56 AM 48.2 °F - 41.0 °F 76% 29.51 in 10.0 mi SSE 4.6 mph - N/A   Scattered Clouds
2:16 AM 48.2 °F - 41.0 °F 76% 29.52 in 10.0 mi SSE 3.5 mph - N/A   Scattered Clouds
2:36 AM 46.4 °F 42.4 °F 42.8 °F 87% 29.52 in 10.0 mi SE 8.1 mph - N/A   Overcast
2:56 AM 48.2 °F - 39.2 °F 71% 29.53 in 7.0 mi South 4.6 mph - N/A   Overcast
3:16 AM 48.2 °F - 39.2 °F 71% 29.52 in 5.0 mi Calm Calm - N/A   Overcast
3:36 AM 46.4 °F 44.3 °F 41.0 °F 81% 29.52 in 10.0 mi East 4.6 mph - N/A   Overcast
3:56 AM 46.4 °F 43.5 °F 42.8 °F 87% 29.51 in 10.0 mi SE 5.8 mph - N/A   Overcast
4:16 AM 46.4 °F 42.4 °F 42.8 °F 87% 29.51 in 10.0 mi SE 8.1 mph - N/A   Overcast
4:36 AM 48.2 °F - 41.0 °F 76% 29.51 in 10.0 mi SE 11.5 mph - N/A   Overcast
4:56 AM 46.4 °F 41.5 °F 41.0 °F 81% 29.51 in 10.0 mi SE 10.4 mph 16.1 mph N/A   Overcast
5:16 AM 46.4 °F 41.5 °F 41.0 °F 81% 29.51 in 7.0 mi SSE 10.4 mph 17.3 mph N/A   Overcast
5:36 AM 46.4 °F 41.9 °F 42.8 °F 87% 29.50 in 6.0 mi SE 9.2 mph - N/A   Overcast
5:56 AM 46.4 °F 42.4 °F 42.8 °F 87% 29.49 in 7.0 mi ESE 8.1 mph - N/A   Overcast
6:16 AM 46.4 °F 40.7 °F 42.8 °F 87% 29.47 in 7.0 mi East 12.7 mph 16.1 mph N/A   Overcast
6:36 AM 46.4 °F 40.7 °F 42.8 °F 87% 29.46 in 7.0 mi ESE 12.7 mph - N/A   Overcast
6:56 AM 46.4 °F 41.5 °F 42.8 °F 87% 29.46 in 10.0 mi ESE 10.4 mph - N/A   Overcast
7:16 AM 46.4 °F 40.7 °F 42.8 °F 87% 29.45 in 10.0 mi East 12.7 mph - N/A   Overcast
7:36 AM 46.4 °F 40.7 °F 41.0 °F 81% 29.44 in 10.0 mi ESE 12.7 mph - N/A   Overcast
7:56 AM 46.4 °F 40.4 °F 42.8 °F 87% 29.43 in 7.0 mi East 13.8 mph 19.6 mph N/A   Overcast
8:16 AM 46.4 °F 41.1 °F 42.8 °F 87% 29.42 in 7.0 mi East 11.5 mph - N/A   Overcast
8:36 AM 46.4 °F 40.7 °F 41.0 °F 81% 29.42 in 7.0 mi ESE 12.7 mph - N/A   Overcast
8:56 AM 46.4 °F 40.4 °F 41.0 °F 81% 29.41 in 10.0 mi ESE 13.8 mph - N/A   Overcast
9:16 AM 46.4 °F 40.7 °F 41.0 °F 81% 29.40 in 10.0 mi ESE 12.7 mph - N/A   Overcast
9:36 AM 46.4 °F 41.1 °F 41.0 °F 81% 29.39 in 10.0 mi ESE 11.5 mph - N/A   Overcast
9:56 AM 46.4 °F 41.5 °F 41.0 °F 81% 29.38 in 10.0 mi ESE 10.4 mph - N/A   Overcast
10:16 AM 46.4 °F 41.9 °F 41.0 °F 81% 29.37 in 10.0 mi East 9.2 mph - N/A   Overcast
10:36 AM 46.4 °F 42.4 °F 41.0 °F 81% 29.36 in 10.0 mi ESE 8.1 mph - N/A   Overcast
10:56 AM 46.4 °F 41.5 °F 42.8 °F 87% 29.34 in 10.0 mi ESE 10.4 mph - N/A   Overcast
11:16 AM 46.4 °F 41.9 °F 42.8 °F 87% 29.33 in 10.0 mi ESE 9.2 mph - N/A   Overcast
11:36 AM 46.4 °F 41.5 °F 42.8 °F 87% 29.33 in 10.0 mi ESE 10.4 mph - N/A   Overcast
11:56 AM 46.4 °F 41.5 °F 42.8 °F 87% 29.31 in 10.0 mi ESE 10.4 mph - N/A   Overcast
12:16 PM 46.4 °F 41.1 °F 42.8 °F 87% 29.30 in 10.0 mi ESE 11.5 mph - N/A   Overcast
12:36 PM 48.2 °F - 42.8 °F 82% 29.29 in 10.0 mi ESE 11.5 mph 18.4 mph N/A   Overcast
12:56 PM 48.2 °F - 42.8 °F 82% 29.28 in 10.0 mi ESE 12.7 mph - N/A   Overcast
1:16 PM 48.2 °F - 42.8 °F 82% 29.26 in 10.0 mi East 11.5 mph - N/A   Overcast
1:36 PM 48.2 °F - 42.8 °F 82% 29.25 in 10.0 mi ESE 13.8 mph 18.4 mph N/A   Overcast
1:56 PM 48.2 °F - 42.8 °F 82% 29.23 in 10.0 mi ESE 13.8 mph 19.6 mph N/A   Overcast
2:16 PM 48.2 °F - 41.0 °F 76% 29.22 in 10.0 mi SE 12.7 mph 20.7 mph N/A   Overcast
2:36 PM 48.2 °F - 41.0 °F 76% 29.20 in 10.0 mi SE 11.5 mph - N/A   Overcast
2:56 PM 48.2 °F - 41.0 °F 76% 29.19 in 10.0 mi SE 12.7 mph 18.4 mph N/A   Overcast
3:16 PM 48.2 °F - 41.0 °F 76% 29.17 in 10.0 mi SE 13.8 mph 17.3 mph N/A   Overcast
3:36 PM 48.2 °F - 39.2 °F 71% 29.16 in 10.0 mi SE 9.2 mph 17.3 mph N/A   Overcast
3:56 PM 48.2 °F - 39.2 °F 71% 29.15 in 10.0 mi SE 10.4 mph 16.1 mph N/A   Overcast
4:16 PM 48.2 °F - 41.0 °F 76% 29.13 in 10.0 mi SSE 9.2 mph 17.3 mph N/A   Overcast
4:36 PM 48.2 °F - 39.2 °F 71% 29.12 in 10.0 mi South 5.8 mph - N/A   Overcast
4:56 PM 48.2 °F - 39.2 °F 71% 29.11 in 10.0 mi Calm Calm - N/A   Overcast
5:16 PM 46.4 °F 45.2 °F 42.8 °F 87% 29.10 in 10.0 mi NE 3.5 mph - N/A   Overcast
5:36 PM 46.4 °F 44.3 °F 42.8 °F 87% 29.09 in 10.0 mi East 4.6 mph - N/A   Overcast
5:56 PM 46.4 °F 45.2 °F 41.0 °F 81% 29.08 in 10.0 mi NW 3.5 mph - N/A   Overcast
6:16 PM 46.4 °F - 41.0 °F 81% 29.08 in 10.0 mi Calm Calm - N/A   Overcast
6:36 PM 44.6 °F - 41.0 °F 87% 29.08 in 10.0 mi Calm Calm - N/A   Overcast
6:56 PM 44.6 °F 43.1 °F 41.0 °F 87% 29.07 in 10.0 mi WNW 3.5 mph - N/A   Overcast
7:16 PM 44.6 °F - 41.0 °F 87% 29.08 in 10.0 mi Calm Calm - N/A   Overcast
7:36 PM 44.6 °F - 41.0 °F 87% 29.08 in 10.0 mi Calm Calm - N/A   Overcast
7:56 PM 44.6 °F - 41.0 °F 87% 29.09 in 10.0 mi Calm Calm - N/A   Overcast
8:16 PM 44.6 °F - 41.0 °F 87% 29.09 in 10.0 mi Calm Calm - N/A   Overcast
8:36 PM 44.6 °F - 41.0 °F 87% 29.08 in 10.0 mi Calm Calm - N/A   Overcast
8:56 PM 44.6 °F - 41.0 °F 87% 29.08 in 10.0 mi Calm Calm - N/A   Overcast
9:16 PM 44.6 °F 43.1 °F 42.8 °F 93% 29.08 in 10.0 mi NW 3.5 mph - N/A   Overcast
9:36 PM 44.6 °F 42.2 °F 41.0 °F 87% 29.08 in 10.0 mi WNW 4.6 mph - N/A   Overcast
9:56 PM 44.6 °F 43.1 °F 41.0 °F 87% 29.08 in 10.0 mi West 3.5 mph - N/A   Overcast
10:16 PM 44.6 °F 41.4 °F 41.0 °F 87% 29.08 in 10.0 mi WSW 5.8 mph - N/A   Overcast
10:36 PM 44.6 °F 40.7 °F 39.2 °F 81% 29.09 in 10.0 mi WSW 6.9 mph - N/A   Overcast
10:56 PM 44.6 °F 40.2 °F 39.2 °F 81% 29.09 in 10.0 mi WSW 8.1 mph - N/A   Overcast
11:16 PM 44.6 °F 40.7 °F 39.2 °F 81% 29.10 in 10.0 mi West 6.9 mph - N/A   Overcast
11:36 PM 44.6 °F 40.2 °F 39.2 °F 81% 29.12 in 9.0 mi WSW 8.1 mph - N/A   Overcast
11:56 PM 44.6 °F 39.7 °F 39.2 °F 81% 29.13 in 9.0 mi WSW 9.2 mph - N/A   Overcast